Charleston, SC

11:39 PM EST on January 23, 2018 (GMT -0500)
Charleston Air Force Base-International

Weather History for KCHS - June, 2013

Change the Weather History Date:

Saturday, June 8, 2013

  Actual Average Record
Temperature  
Mean Temperature 82 °F 78 °F  
Max Temperature 90 °F 87 °F 98 °F (1986)
Min Temperature 73 °F 68 °F 53 °F (1998)
Degree Days  
Heating Degree Days 0 0  
Month to date heating degree days 0 0  
Since 1 June heating degree days 0 0  
Since 1 July heating degree days 1846 1975  
Cooling Degree Days 17 13  
Month to date cooling degree days 111 97  
Year to date cooling degree days 458 459  
Since 1 June cooling degree days 111 97  
Growing Degree Days 32 (Base 50)    
Moisture  
Dew Point 71 °F    
Average Humidity 73    
Maximum Humidity 94    
Minimum Humidity 52    
Precipitation  
Precipitation 0.02 in 0.17 in 4.61 in (1973)
Month to date precipitation 5.87 1.27  
Year to date precipitation 29.31 17.58  
Sea Level Pressure  
Sea Level Pressure 29.99 in    
Wind  
Wind Speed 9 mph (SW)    
Max Wind Speed 16 mph    
Max Gust Speed 21 mph    
Visibility 10 miles    
Events Rain    
T = Trace of Precipitation, MM = Missing Value Source: NWS Daily Summary

Daily Weather History Graph

Daily Weather History Graph

Search for Another Location

Airport or City:

Trip Planner

Search our weather history database for the weather conditions in past years. The results will help you decide how hot, cold, wet, or windy it might be!

Date:

Astronomy

Jun. 08, 2013 Rise Set
Actual Time 6:11 AM EDT 8:27 PM EDT
Civil Twilight 5:42 AM EDT 8:55 PM EDT
Nautical Twilight 5:08 AM EDT 9:30 PM EDT
Astronomical Twilight 4:30 AM EDT 10:08 PM EDT
Moon 6:14 AM EDT (6/8) 8:31 PM EDT (6/8)
Length of Visible Light 15h 12m
Length of Day
14h 15m
New Moon, 0% of the Moon is Illuminated
Jun 8
New Moon
Jun 16
First Quarter
Jun 23
Full
Jun 30
Last Quarter
Jul 8
New

Hourly Weather History & Observations

Time (EDT) Temp. Heat Index Dew Point Humidity Pressure Visibility Wind Dir Wind Speed Gust Speed Precip Events Conditions
12:56 AM 78.1 °F - 72.0 °F 81% 29.88 in 10.0 mi SSW 12.7 mph - N/A   Partly Cloudy
1:30 AM 78.8 °F - 71.6 °F 78% 29.89 in 8.0 mi WSW 5.8 mph - 0.02 in Rain Rain
1:56 AM 77.0 °F - 73.0 °F 88% 29.89 in 10.0 mi SW 8.1 mph - 0.02 in   Mostly Cloudy
2:56 AM 73.9 °F - 70.0 °F 87% 29.88 in 10.0 mi South 5.8 mph - N/A   Clear
3:56 AM 75.9 °F - 73.0 °F 91% 29.88 in 10.0 mi SSW 9.2 mph - N/A   Clear
4:56 AM 75.0 °F - 72.0 °F 90% 29.89 in 10.0 mi SSW 5.8 mph - N/A   Clear
5:56 AM 75.0 °F - 71.1 °F 87% 29.91 in 10.0 mi SSW 9.2 mph - N/A   Scattered Clouds
6:56 AM 75.0 °F - 70.0 °F 84% 29.94 in 10.0 mi SSW 9.2 mph - N/A   Partly Cloudy
7:56 AM 78.1 °F - 70.0 °F 76% 29.96 in 10.0 mi SW 10.4 mph - N/A   Scattered Clouds
8:56 AM 80.1 °F 83.2 °F 70.0 °F 71% 29.99 in 10.0 mi WSW 9.2 mph 18.4 mph N/A   Scattered Clouds
9:56 AM 81.0 °F 84.4 °F 70.0 °F 69% 30.01 in 10.0 mi SW 11.5 mph 17.3 mph N/A   Scattered Clouds
10:12 AM 80.6 °F 83.9 °F 69.8 °F 70% 30.01 in 10.0 mi SW 11.5 mph - N/A   Mostly Cloudy
10:56 AM 82.9 °F 87.0 °F 70.0 °F 65% 30.01 in 10.0 mi SW 10.4 mph - N/A   Mostly Cloudy
11:44 AM 84.2 °F 89.6 °F 71.6 °F 66% 30.02 in 10.0 mi West 10.4 mph - N/A   Mostly Cloudy
11:56 AM 82.9 °F 87.5 °F 71.1 °F 67% 30.02 in 10.0 mi WNW 9.2 mph - N/A   Mostly Cloudy
12:56 PM 86.0 °F 91.5 °F 71.1 °F 61% 30.01 in 10.0 mi WNW 10.4 mph 17.3 mph N/A   Scattered Clouds
1:56 PM 87.1 °F 91.3 °F 69.1 °F 55% 30.01 in 10.0 mi WSW 10.4 mph 17.3 mph N/A   Mostly Cloudy
2:56 PM 88.0 °F 92.1 °F 69.1 °F 53% 30.01 in 10.0 mi WSW 10.4 mph - N/A   Mostly Cloudy
3:56 PM 89.1 °F 93.7 °F 69.1 °F 52% 30.01 in 10.0 mi Variable 6.9 mph - N/A   Mostly Cloudy
4:56 PM 86.0 °F 93.0 °F 73.0 °F 65% 30.01 in 10.0 mi SSW 11.5 mph - N/A   Mostly Cloudy
5:56 PM 84.0 °F 89.6 °F 72.0 °F 67% 30.02 in 10.0 mi SSW 11.5 mph - N/A   Mostly Cloudy
6:56 PM 84.0 °F 90.2 °F 73.0 °F 69% 30.04 in 10.0 mi SSW 9.2 mph - N/A   Mostly Cloudy
7:56 PM 81.0 °F 85.2 °F 72.0 °F 74% 30.06 in 10.0 mi SSW 12.7 mph - N/A   Mostly Cloudy
8:56 PM 79.0 °F - 73.0 °F 82% 30.07 in 10.0 mi SSW 5.8 mph - N/A   Mostly Cloudy
9:56 PM 78.1 °F - 73.0 °F 84% 30.09 in 10.0 mi South 4.6 mph - N/A   Mostly Cloudy
10:56 PM 78.1 °F - 73.0 °F 84% 30.11 in 10.0 mi South 5.8 mph - N/A   Overcast
11:56 PM 77.0 °F - 73.0 °F 88% 30.11 in 10.0 mi SSE 4.6 mph - N/A   Overcast